^^
Saratoga-Weather Station Historical Data
Daily Summary for April 30, 2020 Units:  English    Metric   Both
Daily Weekly Monthly Yearly Custom
  High: Low: Average:
Temperature: 56.8 °F 48.7 °F 52.3 °F
Dew Point: 50.2 °F 43.9 °F 48.2 °F
Humidity: 92% 74% 86%
Wind Speed: 15mph 0mph 2.6mph
Wind Gust: 16mph - -
Wind- - SSW
Pressure: 29.7 in 29.6 in -
Precipitation: 0.24 in    
Historical Graphs
 
 
Tabular Data for April 30, 2020
Time Temperature Dew Point Pressure Wind Wind Speed Wind Gust Humidity Rainfall Rate (Hourly) solar
00:01 54.1 °F 49.5 °F 29.7 in NNE 0.9 mph 6 mph 84% 0 in 0 W/m2
00:06 54.1 °F 49.5 °F 29.7 in West 2 mph 4 mph 84% 0 in 0 W/m2
00:12 54.1 °F 49.5 °F 29.7 in NE 2 mph 7 mph 84% 0 in 0 W/m2
00:17 54.1 °F 49.8 °F 29.7 in WNW 2 mph 3 mph 85% 0 in 0 W/m2
00:22 54.1 °F 49.8 °F 29.7 in SSW 0.9 mph 7 mph 85% 0 in 0 W/m2
00:27 54 °F 49.6 °F 29.7 in NW 0.9 mph 3 mph 85% 0 in 0 W/m2
00:32 54 °F 49.6 °F 29.7 in ENE 2 mph 4 mph 85% 0 in 0 W/m2
00:37 54 °F 49.6 °F 29.7 in ENE 2 mph 6 mph 85% 0 in 0 W/m2
00:42 54 °F 49.6 °F 29.7 in NNW 2 mph 7 mph 85% 0 in 0 W/m2
00:47 54.1 °F 49.5 °F 29.7 in NNE 4 mph 6 mph 84% 0 in 0 W/m2
00:52 54.1 °F 49.5 °F 29.7 in NW 2.9 mph 5 mph 84% 0 in 0 W/m2
00:57 54.1 °F 49.5 °F 29.7 in NW 2.9 mph 4 mph 84% 0 in 0 W/m2
01:02 54.1 °F 49.5 °F 29.7 in East 2 mph 5 mph 84% 0 in 0 W/m2
01:07 54.1 °F 49.5 °F 29.7 in Calm   2 mph 84% 0 in 0 W/m2
01:12 54.1 °F 49.5 °F 29.7 in NE 2 mph 5 mph 84% 0 in 0 W/m2
01:17 54.1 °F 49.5 °F 29.7 in North 0.9 mph 2 mph 84% 0 in 0 W/m2
01:22 54 °F 49.3 °F 29.7 in NE 2.9 mph 4 mph 84% 0 in 0 W/m2
01:27 54 °F 49.3 °F 29.7 in North 2 mph 6 mph 84% 0 in 0 W/m2
01:32 54 °F 49.3 °F 29.7 in North 2 mph 4 mph 84% 0 in 0 W/m2
01:37 54 °F 49.6 °F 29.7 in NNE 2 mph 5 mph 85% 0 in 0 W/m2
01:42 54 °F 49.3 °F 29.7 in NNW 2 mph 4 mph 84% 0 in 0 W/m2
01:47 53.8 °F 49.5 °F 29.7 in NE 0.9 mph 5 mph 85% 0 in 0 W/m2
01:52 53.8 °F 49.5 °F 29.7 in North 2 mph 4 mph 85% 0 in 0 W/m2
01:57 53.8 °F 49.5 °F 29.7 in Calm   5 mph 85% 0 in 0 W/m2
02:02 53.8 °F 49.6 °F 29.7 in NE 2.9 mph 3 mph 86% 0 in 0 W/m2
02:07 53.8 °F 49.6 °F 29.7 in NNW 2 mph 3 mph 86% 0 in 0 W/m2
02:12 53.6 °F 49.8 °F 29.7 in North 8.1 mph 9 mph 87% 0 in 0 W/m2
02:17 53.4 °F 49.6 °F 29.7 in East 2 mph 6 mph 87% 0 in 0 W/m2
02:22 53.4 °F 49.6 °F 29.7 in NNE 4 mph 8 mph 87% 0 in 0 W/m2
02:27 53.4 °F 50 °F 29.7 in North 2 mph 4 mph 88% 0.01 in 0 W/m2
02:32 53.2 °F 49.8 °F 29.6 in ENE 4 mph 5 mph 88% 0.01 in 0 W/m2
02:37 53.2 °F 50 °F 29.6 in Calm   3 mph 89% 0.01 in 0 W/m2
02:42 53.2 °F 50 °F 29.6 in ENE 4 mph 4 mph 89% 0.01 in 0 W/m2
02:47 53.1 °F 49.8 °F 29.6 in Calm   5 mph 89% 0.01 in 0 W/m2
02:52 53.1 °F 50.2 °F 29.6 in NNW 2.9 mph 3 mph 90% 0.02 in 0 W/m2
02:58 53.1 °F 50.2 °F 29.6 in ENE 2.9 mph 4 mph 90% 0.02 in 0 W/m2
03:03 52.9 °F 50 °F 29.6 in NNW 2 mph 6 mph 90% 0.02 in 0 W/m2
03:08 52.9 °F 50 °F 29.6 in NNW 2.9 mph 5 mph 90% 0.02 in 0 W/m2
03:13 52.9 °F 50 °F 29.6 in North 4 mph 4 mph 90% 0.02 in 0 W/m2
03:18 52.7 °F 49.8 °F 29.6 in East 2 mph 4 mph 90% 0.02 in 0 W/m2
03:23 52.5 °F 50 °F 29.6 in NNE 2 mph 4 mph 91% 0.02 in 0 W/m2
03:28 52.5 °F 50 °F 29.6 in West 2 mph 5 mph 91% 0.02 in 0 W/m2
03:33 52.5 °F 50 °F 29.6 in North 2 mph 5 mph 91% 0.02 in 0 W/m2
03:38 52.5 °F 50 °F 29.6 in NNW 2 mph 4 mph 91% 0.02 in 0 W/m2
03:43 52.5 °F 50 °F 29.6 in North 2.9 mph 6 mph 91% 0.02 in 0 W/m2
03:48 52.3 °F 49.8 °F 29.6 in East 4 mph 4 mph 91% 0.03 in 0 W/m2
03:53 52.3 °F 49.8 °F 29.6 in Calm   4 mph 91% 0.02 in 0 W/m2
03:58 52.3 °F 49.8 °F 29.6 in East 2.9 mph 6 mph 91% 0.03 in 0 W/m2
04:03 52.3 °F 49.8 °F 29.6 in NW 2.9 mph 4 mph 91% 0.03 in 0 W/m2
04:08 52.2 °F 49.6 °F 29.6 in NNW 2 mph 4 mph 91% 0.03 in 0 W/m2
04:13 52.2 °F 49.6 °F 29.6 in NNW 0.9 mph 4 mph 91% 0.04 in 0 W/m2
04:18 52.2 °F 49.8 °F 29.6 in NNW 2 mph 4 mph 92% 0.04 in 0 W/m2
04:23 52.2 °F 49.8 °F 29.6 in ENE 2 mph 3 mph 92% 0.05 in 0 W/m2
04:28 52.2 °F 49.8 °F 29.6 in NE 2.9 mph 4 mph 92% 0.04 in 0 W/m2
04:33 52 °F 49.6 °F 29.6 in East 0.9 mph 6 mph 92% 0.04 in 0 W/m2
04:38 52 °F 49.6 °F 29.6 in North 2 mph 2 mph 92% 0.05 in 0 W/m2
04:43 52 °F 49.6 °F 29.6 in North 2.9 mph 7 mph 92% 0.04 in 0 W/m2
04:48 52 °F 49.6 °F 29.6 in Calm   4 mph 92% 0.03 in 0 W/m2
04:53 52 °F 49.6 °F 29.6 in NE 0.9 mph 5 mph 92% 0.04 in 0 W/m2
04:58 52 °F 49.6 °F 29.6 in ENE 0.9 mph 3 mph 92% 0.03 in 0 W/m2
05:03 52 °F 49.6 °F 29.6 in North 2.9 mph 7 mph 92% 0.04 in 0 W/m2
05:08 52 °F 49.6 °F 29.6 in West 4 mph 8 mph 92% 0.03 in 0 W/m2
05:13 52 °F 49.6 °F 29.6 in SE 0.9 mph 4 mph 92% 0.03 in 0 W/m2
05:19 52 °F 49.6 °F 29.6 in North 2.9 mph 8 mph 92% 0.03 in 0 W/m2
05:24 52 °F 49.6 °F 29.6 in South 2 mph 6 mph 92% 0.02 in 0 W/m2
05:29 52 °F 49.6 °F 29.6 in North 4.9 mph 5 mph 92% 0.02 in 0 W/m2
05:34 52 °F 49.6 °F 29.6 in NNE 2.9 mph 6 mph 92% 0.02 in 0 W/m2
05:39 51.8 °F 49.6 °F 29.6 in NW 2 mph 3 mph 92% 0.02 in 0 W/m2
05:44 51.8 °F 49.3 °F 29.6 in SSW 2 mph 3 mph 91% 0.02 in 0 W/m2
05:49 51.8 °F 49.3 °F 29.6 in North 0.9 mph 2 mph 91% 0.02 in 0 W/m2
05:54 51.8 °F 49.3 °F 29.6 in North 2 mph 3 mph 91% 0.01 in 0 W/m2
05:59 51.6 °F 49.1 °F 29.6 in SSW 0.9 mph 5 mph 91% 0.01 in 0 W/m2
06:04 51.6 °F 49.1 °F 29.6 in NW 0.9 mph 3 mph 91% 0 in 0 W/m2
06:09 51.6 °F 48.7 °F 29.6 in WNW 0.9 mph 4 mph 90% 0 in 0 W/m2
06:14 51.4 °F 48.6 °F 29.6 in Calm   3 mph 90% 0 in 0 W/m2
06:19 51.4 °F 48.6 °F 29.6 in NW 2 mph 3 mph 90% 0 in 0 W/m2
06:24 51.3 °F 48.4 °F 29.6 in East 0.9 mph 4 mph 90% 0 in 0 W/m2
06:29 51.3 °F 48.4 °F 29.6 in NE 2 mph 3 mph 90% 0 in 0 W/m2
06:34 51.3 °F 48.4 °F 29.6 in East 0.9 mph 3 mph 90% 0 in 5 W/m2
06:39 51.3 °F 48.7 °F 29.6 in NNE 2 mph 3 mph 91% 0 in 9 W/m2
06:44 51.3 °F 48.4 °F 29.6 in East 2 mph 4 mph 90% 0 in 7 W/m2
06:49 51.3 °F 48.7 °F 29.6 in Calm   1 mph 91% 0 in 9 W/m2
06:55 51.3 °F 48.7 °F 29.6 in Calm   2 mph 91% 0 in 18 W/m2
07:00 51.1 °F 48.6 °F 29.6 in Calm   2 mph 91% 0 in 19 W/m2
07:05 51.1 °F 48.6 °F 29.6 in ESE 2 mph 2 mph 91% 0 in 28 W/m2
07:10 51.1 °F 48.6 °F 29.6 in NNE 0.9 mph 1 mph 91% 0 in 30 W/m2
07:15 51.1 °F 48.6 °F 29.6 in North 0.9 mph 6 mph 91% 0 in 33 W/m2
07:20 51.3 °F 48.7 °F 29.6 in SE 2 mph 7 mph 91% 0 in 46 W/m2
07:25 51.3 °F 48.7 °F 29.6 in NNW 0.9 mph 4 mph 91% 0 in 56 W/m2
07:30 51.4 °F 48.9 °F 29.6 in NW 2.9 mph 6 mph 91% 0 in 28 W/m2
07:35 51.4 °F 48.9 °F 29.6 in Calm   4 mph 91% 0 in 37 W/m2
07:40 51.4 °F 48.9 °F 29.6 in NE 2.9 mph 3 mph 91% 0 in 65 W/m2
07:45 51.6 °F 49.1 °F 29.6 in Calm   4 mph 91% 0 in 76 W/m2
07:50 51.6 °F 48.7 °F 29.6 in WNW 4 mph 7 mph 90% 0 in 97 W/m2
07:55 51.8 °F 48.9 °F 29.6 in North 0.9 mph 4 mph 90% 0 in 100 W/m2
08:00 52 °F 48.9 °F 29.6 in NW 2.9 mph 3 mph 89% 0 in 100 W/m2
08:05 52.2 °F 49.1 °F 29.6 in WSW 0.9 mph 9 mph 89% 0 in 47 W/m2
08:10 52.2 °F 49.1 °F 29.6 in NW 0.9 mph 4 mph 89% 0.01 in 30 W/m2
08:15 51.4 °F 48 °F 29.6 in West 6 mph 16 mph 88% 0.02 in 25 W/m2
08:20 50.5 °F 47.1 °F 29.6 in WNW 11 mph 11 mph 88% 0.03 in 33 W/m2
08:25 50.2 °F 46.8 °F 29.6 in NW 6 mph 16 mph 88% 0.04 in 30 W/m2
08:30 49.6 °F 46.6 °F 29.6 in NW 2 mph 6 mph 89% 0.04 in 53 W/m2
08:35 49.5 °F 46.6 °F 29.6 in West 2.9 mph 11 mph 90% 0.05 in 107 W/m2
08:40 49.5 °F 46.6 °F 29.6 in West 2 mph 9 mph 90% 0.05 in 139 W/m2
08:45 49.5 °F 46.6 °F 29.6 in WSW 15 mph 15 mph 90% 0.05 in 169 W/m2
08:50 49.6 °F 46.8 °F 29.6 in North 2.9 mph 7 mph 90% 0.05 in 260 W/m2
08:55 49.8 °F 46.8 °F 29.6 in NW 6 mph 9 mph 89% 0.05 in 218 W/m2
09:00 50 °F 46.9 °F 29.7 in West 2 mph 8 mph 89% 0.05 in 200 W/m2
09:05 50.2 °F 47.1 °F 29.7 in WSW 2.9 mph 9 mph 89% 0.05 in 251 W/m2
09:10 50.5 °F 47.5 °F 29.7 in SW 6.9 mph 10 mph 89% 0.04 in 220 W/m2
09:15 50.5 °F 47.5 °F 29.7 in WSW 8.9 mph 9 mph 89% 0.03 in 134 W/m2
09:20 50.5 °F 47.1 °F 29.7 in West 2.9 mph 10 mph 88% 0.02 in 144 W/m2
09:25 50.5 °F 47.1 °F 29.7 in North 2.9 mph 6 mph 88% 0.01 in 120 W/m2
09:30 50.5 °F 47.5 °F 29.7 in WNW 2.9 mph 3 mph 89% 0.01 in 176 W/m2
09:35 50.5 °F 47.1 °F 29.7 in WSW 6.9 mph 10 mph 88% 0 in 269 W/m2
09:40 50.5 °F 47.1 °F 29.7 in WSW 10.1 mph 10 mph 88% 0 in 230 W/m2
09:45 50.7 °F 47.3 °F 29.7 in WNW 4.9 mph 7 mph 88% 0 in 188 W/m2
09:50 50.9 °F 47.1 °F 29.7 in WNW 2 mph 6 mph 87% 0 in 178 W/m2
09:55 51.1 °F 47.3 °F 29.7 in NNW 4.9 mph 8 mph 87% 0 in 178 W/m2
10:00 50.9 °F 46.9 °F 29.7 in WSW 2 mph 6 mph 86% 0 in 125 W/m2
10:05 50.9 °F 47.1 °F 29.7 in WNW 4 mph 4 mph 87% 0 in 109 W/m2
10:10 50.9 °F 47.1 °F 29.7 in WSW 2 mph 3 mph 87% 0 in 130 W/m2
10:15 50.7 °F 46.8 °F 29.7 in West 2 mph 5 mph 86% 0 in 179 W/m2
10:20 50.7 °F 46.8 °F 29.7 in NNW 2 mph 4 mph 86% 0 in 172 W/m2
10:25 50.9 °F 46.6 °F 29.7 in WNW 4.9 mph 5 mph 85% 0 in 139 W/m2
10:30 50.9 °F 46.2 °F 29.7 in WNW 2 mph 6 mph 84% 0 in 104 W/m2
10:35 50.7 °F 46 °F 29.7 in NE 2.9 mph 5 mph 84% 0 in 165 W/m2
10:40 50.5 °F 45.9 °F 29.7 in WNW 2.9 mph 10 mph 84% 0 in 183 W/m2
10:45 50 °F 44.4 °F 29.7 in NNW 2 mph 11 mph 81% 0 in 160 W/m2
10:50 49.6 °F 44.4 °F 29.7 in West 2.9 mph 7 mph 82% 0.01 in 120 W/m2
10:55 49.1 °F 43.9 °F 29.7 in West 4 mph 10 mph 82% 0.01 in 100 W/m2
11:00 48.7 °F 43.9 °F 29.7 in NW 0.9 mph 6 mph 83% 0.02 in 144 W/m2
11:05 48.7 °F 44.4 °F 29.7 in NW 2 mph 4 mph 85% 0.02 in 257 W/m2
11:10 48.7 °F 44.8 °F 29.7 in West 2 mph 3 mph 86% 0.02 in 575 W/m2
11:16 49.3 °F 45.5 °F 29.7 in Calm   1 mph 87% 0.02 in 380 W/m2
11:21 49.6 °F 46.2 °F 29.7 in West 0.9 mph 2 mph 88% 0.02 in 431 W/m2
11:26 50.5 °F 47.5 °F 29.7 in WSW 2.9 mph 4 mph 89% 0.02 in 332 W/m2
11:31 50.5 °F 46.8 °F 29.7 in NNE 2 mph 4 mph 87% 0.02 in 441 W/m2
11:36 50.9 °F 47.1 °F 29.7 in WNW 2 mph 4 mph 87% 0.02 in 675 W/m2
11:41 51.6 °F 48.2 °F 29.7 in WNW 0.9 mph 5 mph 88% 0.02 in 568 W/m2
11:46 51.6 °F 47.3 °F 29.7 in WNW 0.9 mph 3 mph 85% 0.02 in 522 W/m2
11:51 51.4 °F 46.4 °F 29.7 in NNW 4 mph 9 mph 83% 0.02 in 406 W/m2
11:56 51.6 °F 46.9 °F 29.7 in West 2 mph 4 mph 84% 0.02 in 408 W/m2
12:01 51.6 °F 46.6 °F 29.7 in NW 0.9 mph 5 mph 83% 0.01 in 462 W/m2
12:06 52.2 °F 47.1 °F 29.7 in SSW 0.9 mph 2 mph 83% 0 in 631 W/m2
12:11 52.3 °F 47.3 °F 29.7 in WNW 2 mph 3 mph 83% 0 in 770 W/m2
12:16 52.5 °F 47.5 °F 29.7 in North 2.9 mph 6 mph 83% 0 in 831 W/m2
12:21 53.1 °F 47.3 °F 29.7 in South 0.9 mph 8 mph 81% 0 in 837 W/m2
12:26 53.1 °F 47.3 °F 29.7 in NE 2 mph 3 mph 81% 0 in 448 W/m2
12:31 53.4 °F 47.7 °F 29.7 in East 4 mph 6 mph 81% 0 in 352 W/m2
12:36 53.2 °F 47.3 °F 29.6 in West 2 mph 3 mph 80% 0 in 446 W/m2
12:41 53.4 °F 47.7 °F 29.6 in SW 2 mph 4 mph 81% 0 in 399 W/m2
12:46 53.6 °F 47.3 °F 29.6 in NNW 2 mph 3 mph 79% 0 in 343 W/m2
12:51 53.8 °F 47.8 °F 29.6 in WNW 2.9 mph 4 mph 80% 0 in 327 W/m2
12:56 53.8 °F 47.5 °F 29.6 in NE 2 mph 7 mph 79% 0 in 327 W/m2
13:01 53.8 °F 47.5 °F 29.6 in ESE 0.9 mph 2 mph 79% 0 in 452 W/m2
13:06 54 °F 47.7 °F 29.6 in NW 2 mph 7 mph 79% 0 in 445 W/m2
13:11 54 °F 47.3 °F 29.6 in NE 4 mph 4 mph 78% 0 in 443 W/m2
13:16 54 °F 47.3 °F 29.6 in North 2 mph 6 mph 78% 0.01 in 193 W/m2
13:21 54 °F 47.7 °F 29.6 in ENE 0.9 mph 5 mph 79% 0.01 in 385 W/m2
13:26 54.1 °F 47.5 °F 29.6 in NW 2 mph 8 mph 78% 0.01 in 334 W/m2
13:31 54.1 °F 47.5 °F 29.6 in West 6 mph 7 mph 78% 0.01 in 336 W/m2
13:36 54.3 °F 48 °F 29.6 in ENE 4 mph 10 mph 79% 0.01 in 292 W/m2
13:41 54.7 °F 48.4 °F 29.6 in WNW 0.9 mph 4 mph 79% 0.01 in 701 W/m2
13:46 55.2 °F 48.7 °F 29.6 in ENE 2.9 mph 10 mph 79% 0.01 in 434 W/m2
13:51 55.6 °F 48.9 °F 29.6 in NE 2 mph 3 mph 78% 0.01 in 244 W/m2
13:56 55.8 °F 48.7 °F 29.6 in NE 2.9 mph 6 mph 77% 0.01 in 438 W/m2
14:01 55.9 °F 49.1 °F 29.6 in NE 2 mph 4 mph 78% 0.01 in 455 W/m2
14:06 56.5 °F 49.3 °F 29.6 in West 4 mph 4 mph 77% 0.01 in 357 W/m2
14:11 56.8 °F 49.3 °F 29.6 in East 0.9 mph 3 mph 76% 0.01 in 362 W/m2
14:16 56.7 °F 48.4 °F 29.6 in NNW 2.9 mph 3 mph 74% 0 in 207 W/m2
14:21 56.3 °F 48.2 °F 29.6 in West 6.9 mph 10 mph 74% 0 in 211 W/m2
14:26 55.9 °F 48.6 °F 29.6 in SW 2 mph 5 mph 76% 0 in 241 W/m2
14:32 55.8 °F 48.7 °F 29.6 in ESE 4 mph 4 mph 77% 0 in 113 W/m2
14:37 55.4 °F 48 °F 29.6 in NNW 4.9 mph 5 mph 76% 0 in 146 W/m2
14:42 55 °F 48.6 °F 29.6 in NE 2.9 mph 5 mph 79% 0 in 163 W/m2
14:47 54.7 °F 48.6 °F 29.6 in West 12.1 mph 12 mph 80% 0.02 in 142 W/m2
14:52 53.2 °F 47.8 °F 29.6 in WSW 2 mph 11 mph 82% 0.02 in 301 W/m2
14:57 52.5 °F 48.2 °F 29.6 in WNW 2.9 mph 9 mph 85% 0.02 in 348 W/m2
15:02 52.3 °F 48 °F 29.6 in SW 0.9 mph 4 mph 85% 0.02 in 227 W/m2
15:07 52.2 °F 48 °F 29.6 in SW 4.9 mph 5 mph 86% 0.02 in 271 W/m2
15:12 52.2 °F 48 °F 29.6 in NW 2 mph 4 mph 86% 0.02 in 274 W/m2
15:17 52.2 °F 48 °F 29.6 in NNE 0.9 mph 9 mph 86% 0.02 in 181 W/m2
15:22 52.3 °F 48.6 °F 29.6 in NW 4 mph 4 mph 87% 0.02 in 186 W/m2
15:27 52.3 °F 48.2 °F 29.6 in North 2.9 mph 4 mph 86% 0.02 in 120 W/m2
15:32 52.3 °F 48.2 °F 29.6 in West 0.9 mph 2 mph 86% 0.02 in 88 W/m2
15:37 52.2 °F 48.4 °F 29.6 in ENE 2 mph 4 mph 87% 0.04 in 121 W/m2
15:42 52.2 °F 48.7 °F 29.6 in NNE 2 mph 4 mph 88% 0.04 in 162 W/m2
15:47 52 °F 48.9 °F 29.6 in NE 2 mph 2 mph 89% 0.03 in 190 W/m2
15:52 52.2 °F 49.1 °F 29.6 in East 2 mph 2 mph 89% 0.03 in 237 W/m2
15:57 52.3 °F 49.5 °F 29.6 in NNW 6 mph 8 mph 90% 0.03 in 229 W/m2
16:02 52.3 °F 49.5 °F 29.6 in NNE 0.9 mph 1 mph 90% 0.03 in 176 W/m2
16:07 52.5 °F 49.6 °F 29.6 in West 4 mph 4 mph 90% 0.04 in 165 W/m2
16:12 52.5 °F 49.6 °F 29.6 in NE 2 mph 4 mph 90% 0.04 in 135 W/m2
16:17 52.5 °F 49.6 °F 29.6 in WNW 0.9 mph 7 mph 90% 0.04 in 116 W/m2
16:22 52.5 °F 49.6 °F 29.6 in NNW 0.9 mph 3 mph 90% 0.04 in 139 W/m2
16:27 52.5 °F 49.6 °F 29.6 in WNW 2.9 mph 8 mph 90% 0.04 in 98 W/m2
16:32 52.3 °F 48.9 °F 29.6 in NW 2 mph 12 mph 88% 0.03 in 91 W/m2
16:37 52.2 °F 48.4 °F 29.6 in WNW 4.9 mph 10 mph 87% 0.02 in 83 W/m2
16:42 52 °F 48.6 °F 29.6 in WNW 8.1 mph 12 mph 88% 0.02 in 76 W/m2
16:47 51.4 °F 47.7 °F 29.6 in NW 2 mph 6 mph 87% 0.01 in 72 W/m2
16:52 51.3 °F 47.5 °F 29.6 in WSW 2.9 mph 12 mph 87% 0.02 in 86 W/m2
16:57 51.1 °F 47.3 °F 29.6 in WNW 10.1 mph 10 mph 87% 0.02 in 95 W/m2
17:03 50.7 °F 47.3 °F 29.6 in West 6 mph 8 mph 88% 0.02 in 172 W/m2
17:08 50.9 °F 47.5 °F 29.6 in WNW 4 mph 9 mph 88% 0.01 in 239 W/m2
17:13 51.1 °F 47.7 °F 29.6 in West 2.9 mph 4 mph 88% 0.01 in 236 W/m2
17:18 51.3 °F 47.8 °F 29.6 in West 4 mph 7 mph 88% 0.01 in 237 W/m2
17:23 51.8 °F 48.7 °F 29.6 in NNW 4.9 mph 8 mph 89% 0.01 in 629 W/m2
17:28 52.5 °F 48.7 °F 29.6 in NNW 4 mph 8 mph 87% 0.01 in 504 W/m2
17:33 53.2 °F 49.1 °F 29.6 in NW 0.9 mph 4 mph 86% 0.01 in 464 W/m2
17:38 53.4 °F 49.1 °F 29.6 in NNW 4.9 mph 9 mph 85% 0.01 in 156 W/m2
17:43 53.2 °F 48.9 °F 29.6 in NW 2 mph 4 mph 85% 0.01 in 100 W/m2
17:48 53.1 °F 48.9 °F 29.6 in NE 2.9 mph 9 mph 86% 0.01 in 84 W/m2
17:53 52.9 °F 48.6 °F 29.6 in SW 2.9 mph 4 mph 85% 0 in 107 W/m2
17:58 52.5 °F 48.2 °F 29.6 in NNW 2.9 mph 6 mph 85% 0 in 183 W/m2
18:03 52.7 °F 48.4 °F 29.6 in NW 4.9 mph 10 mph 85% 0 in 492 W/m2
18:08 53.2 °F 49.1 °F 29.6 in NW 0.9 mph 2 mph 86% 0 in 359 W/m2
18:13 53.8 °F 49.1 °F 29.6 in NW 8.1 mph 8 mph 84% 0 in 336 W/m2
18:18 54.1 °F 49.1 °F 29.6 in NNW 2.9 mph 8 mph 83% 0 in 327 W/m2
18:24 54.3 °F 48.9 °F 29.6 in ENE 2 mph 5 mph 82% 0 in 330 W/m2
18:29 54.3 °F 48.6 °F 29.6 in NNW 0.9 mph 8 mph 81% 0 in 323 W/m2
18:34 54 °F 48.2 °F 29.6 in WNW 2.9 mph 6 mph 81% 0 in 76 W/m2
18:39 53.6 °F 47.8 °F 29.6 in North 2 mph 12 mph 81% 0 in 86 W/m2
18:44 53.2 °F 48.2 °F 29.6 in NNW 0.9 mph 4 mph 83% 0 in 130 W/m2
18:49 53.2 °F 48.2 °F 29.6 in Calm   3 mph 83% 0 in 69 W/m2
18:54 53.2 °F 48.2 °F 29.6 in NW 2 mph 3 mph 83% 0 in 93 W/m2
18:59 53.4 °F 48.7 °F 29.6 in Calm   1 mph 84% 0 in 88 W/m2
19:04 53.2 °F 48.2 °F 29.6 in North 0.9 mph 5 mph 83% 0 in 67 W/m2
19:09 53.2 °F 48.2 °F 29.6 in ESE 0.9 mph 2 mph 83% 0 in 62 W/m2
19:14 53.2 °F 48.2 °F 29.6 in Calm   3 mph 83% 0 in 84 W/m2
19:19 53.2 °F 48.2 °F 29.6 in North 0.9 mph 4 mph 83% 0 in 49 W/m2
19:24 53.4 °F 48.4 °F 29.6 in NNE 2 mph 3 mph 83% 0 in 49 W/m2
19:29 53.4 °F 48.4 °F 29.6 in Calm   2 mph 83% 0 in 33 W/m2
19:34 53.4 °F 48.7 °F 29.6 in Calm   2 mph 84% 0 in 51 W/m2
19:39 53.4 °F 48.7 °F 29.6 in SE 2 mph 4 mph 84% 0 in 25 W/m2
19:44 53.2 °F 48.6 °F 29.6 in WSW 0.9 mph 4 mph 84% 0 in 44 W/m2
19:49 53.2 °F 48.2 °F 29.6 in WNW 2.9 mph 5 mph 83% 0 in 51 W/m2
19:54 53.2 °F 48.2 °F 29.6 in Calm   2 mph 83% 0 in 26 W/m2
19:59 53.2 °F 48.2 °F 29.6 in WSW 2 mph 4 mph 83% 0 in 72 W/m2
20:04 53.2 °F 47.8 °F 29.6 in ENE 4 mph 4 mph 82% 0 in 23 W/m2
20:10 53.1 °F 47.7 °F 29.6 in WNW 0.9 mph 3 mph 82% 0 in 14 W/m2
20:15 53.1 °F 47.7 °F 29.6 in NNW 0.9 mph 4 mph 82% 0 in 12 W/m2
20:20 52.9 °F 47.5 °F 29.6 in WNW 0.9 mph 3 mph 82% 0 in 12 W/m2
20:25 52.9 °F 47.5 °F 29.6 in NW 0.9 mph 3 mph 82% 0 in 7 W/m2
20:30 52.9 °F 47.5 °F 29.6 in NNE 2 mph 3 mph 82% 0 in 5 W/m2
20:35 52.9 °F 47.5 °F 29.6 in NNE 0.9 mph 4 mph 82% 0 in 5 W/m2
20:40 53.1 °F 47.7 °F 29.6 in ENE 6.9 mph 7 mph 82% 0 in 5 W/m2
20:45 52.9 °F 47.5 °F 29.6 in East 2 mph 3 mph 82% 0 in 0 W/m2
20:50 52.9 °F 47.5 °F 29.6 in NNW 2 mph 2 mph 82% 0 in 0 W/m2
20:55 52.9 °F 47.5 °F 29.6 in NNW 2.9 mph 4 mph 82% 0 in 0 W/m2
21:00 52.7 °F 47.7 °F 29.6 in ENE 0.9 mph 3 mph 83% 0 in 0 W/m2
21:05 52.7 °F 47.7 °F 29.6 in NE 0.9 mph 2 mph 83% 0 in 0 W/m2
21:10 52.7 °F 47.7 °F 29.6 in NE 2 mph 3 mph 83% 0 in 0 W/m2
21:15 52.7 °F 47.7 °F 29.6 in NNW 4 mph 4 mph 83% 0.01 in 0 W/m2
21:20 52.5 °F 47.8 °F 29.6 in NNW 2 mph 5 mph 84% 0.01 in 0 W/m2
21:25 52.3 °F 47.7 °F 29.6 in NE 2.9 mph 4 mph 84% 0.01 in 0 W/m2
21:30 52.2 °F 47.5 °F 29.6 in SSE 0.9 mph 5 mph 84% 0.01 in 0 W/m2
21:35 52.2 °F 47.5 °F 29.6 in North 0.9 mph 4 mph 84% 0.01 in 0 W/m2
21:40 52.2 °F 47.5 °F 29.6 in ENE 0.9 mph 5 mph 84% 0.01 in 0 W/m2
21:45 52 °F 47.7 °F 29.6 in WNW 0.9 mph 4 mph 85% 0.01 in 0 W/m2
21:50 51.8 °F 47.5 °F 29.6 in NE 0.9 mph 1 mph 85% 0.01 in 0 W/m2
21:55 51.6 °F 47.3 °F 29.6 in ENE 0.9 mph 4 mph 85% 0.01 in 0 W/m2
22:00 51.8 °F 47.5 °F 29.6 in NW 2.9 mph 4 mph 85% 0.01 in 0 W/m2
22:05 52 °F 47.3 °F 29.6 in NNE 2 mph 3 mph 84% 0.01 in 0 W/m2
22:10 52.2 °F 47.1 °F 29.6 in WNW 2 mph 4 mph 83% 0.01 in 0 W/m2
22:15 52.2 °F 47.5 °F 29.6 in West 2 mph 2 mph 84% 0 in 0 W/m2
22:20 52.2 °F 47.5 °F 29.6 in ENE 0.9 mph 5 mph 84% 0 in 0 W/m2
22:25 52 °F 47.3 °F 29.6 in WNW 2.9 mph 6 mph 84% 0 in 0 W/m2
22:30 52 °F 47.3 °F 29.6 in NW 13 mph 13 mph 84% 0 in 0 W/m2
22:35 52 °F 47.3 °F 29.6 in SSW 8.9 mph 12 mph 84% 0 in 0 W/m2
22:40 51.6 °F 46.9 °F 29.6 in WNW 2.9 mph 10 mph 84% 0 in 0 W/m2
22:45 51.4 °F 46.8 °F 29.6 in NE 4 mph 7 mph 84% 0 in 0 W/m2
22:50 51.3 °F 46.6 °F 29.6 in NW 2.9 mph 5 mph 84% 0 in 0 W/m2
22:55 51.1 °F 46.4 °F 29.6 in NNW 6 mph 9 mph 84% 0 in 0 W/m2
23:00 50.7 °F 46 °F 29.6 in NNW 2.9 mph 5 mph 84% 0 in 0 W/m2
23:05 50.7 °F 46 °F 29.6 in North 2 mph 7 mph 84% 0 in 0 W/m2
23:10 50.5 °F 45.5 °F 29.6 in WSW 2.9 mph 11 mph 83% 0 in 0 W/m2
23:15 50.4 °F 45.3 °F 29.6 in WNW 4 mph 8 mph 83% 0 in 0 W/m2
23:21 50.4 °F 45.3 °F 29.6 in NW 4 mph 8 mph 83% 0 in 0 W/m2
23:26 50.4 °F 45.3 °F 29.6 in NW 4.9 mph 10 mph 83% 0 in 0 W/m2
23:31 50.2 °F 45.1 °F 29.6 in NW 8.9 mph 9 mph 83% 0 in 0 W/m2
23:36 50 °F 45 °F 29.6 in WSW 6.9 mph 8 mph 83% 0 in 0 W/m2
23:41 49.8 °F 45.1 °F 29.6 in West 2 mph 2 mph 84% 0 in 0 W/m2
23:46 49.6 °F 45 °F 29.6 in NW 2.9 mph 3 mph 84% 0 in 0 W/m2
23:51 49.5 °F 44.8 °F 29.6 in SSW 2 mph 3 mph 84% 0 in 0 W/m2
23:56 49.5 °F 45.1 °F 29.6 in Calm   2 mph 85% 0 in 0 W/m2
Juneau County Weather
Compliments of Weather Underground - 4 mb